TimeCST,TemperatureF,Dew PointF,Humidity,Sea Level PressureIn,VisibilityMPH,Wind Direction,Wind SpeedMPH,Gust SpeedMPH,PrecipitationIn,Events,Conditions,WindDirDegrees,DateUTC
12:15 AM,28.4,28.4,100,30.08,0.2,East,4.6,-,N/A,Fog,Light Freezing Fog,90,2012-11-21 06:15:00
12:35 AM,30.2,30.2,100,30.08,0.2,East,3.5,-,N/A,Fog,Light Freezing Fog,90,2012-11-21 06:35:00
12:55 AM,30.2,30.2,100,30.08,0.2,Calm,Calm,-,N/A,Fog,Light Freezing Fog,0,2012-11-21 06:55:00
1:15 AM,30.2,30.2,100,30.08,0.2,Calm,Calm,-,N/A,Fog,Light Freezing Fog,0,2012-11-21 07:15:00
1:35 AM,30.2,30.2,100,30.08,0.2,ESE,3.5,-,N/A,Fog,Light Freezing Fog,110,2012-11-21 07:35:00
1:55 AM,30.2,30.2,100,30.08,0.2,East,3.5,-,N/A,Fog,Light Freezing Fog,100,2012-11-21 07:55:00
2:15 AM,32.0,32.0,100,30.08,0.2,Calm,Calm,-,N/A,Fog,Light Freezing Fog,0,2012-11-21 08:15:00
2:35 AM,32.0,32.0,100,30.07,0.2,ESE,5.8,-,N/A,Fog,Fog,120,2012-11-21 08:35:00
2:55 AM,32.0,32.0,100,30.06,0.2,ESE,6.9,-,N/A,Fog,Fog,110,2012-11-21 08:55:00
3:15 AM,32.0,32.0,100,30.06,0.2,ESE,5.8,-,N/A,Fog,Fog,110,2012-11-21 09:15:00
3:35 AM,32.0,32.0,100,30.05,0.2,ESE,6.9,-,N/A,Fog,Fog,120,2012-11-21 09:35:00
3:55 AM,32.0,32.0,100,30.04,0.2,ESE,8.1,-,N/A,Fog,Fog,120,2012-11-21 09:55:00
4:15 AM,32.0,32.0,100,30.03,0.2,ESE,6.9,-,N/A,Fog,Fog,120,2012-11-21 10:15:00
4:35 AM,32.0,32.0,100,30.02,0.2,ESE,5.8,-,N/A,Fog,Light Freezing Fog,110,2012-11-21 10:35:00
4:55 AM,32.0,32.0,100,30.02,1.8,ESE,8.1,-,N/A,,Scattered Clouds,110,2012-11-21 10:55:00
5:15 AM,32.0,32.0,100,30.02,2.0,ESE,5.8,-,N/A,,Clear,110,2012-11-21 11:15:00
5:35 AM,32.0,32.0,100,30.01,2.5,ESE,4.6,-,N/A,,Clear,110,2012-11-21 11:35:00
5:55 AM,32.0,32.0,100,30.01,2.5,ESE,5.8,-,N/A,,Clear,120,2012-11-21 11:55:00
6:15 AM,32.0,32.0,100,30.01,3.0,East,4.6,-,N/A,,Clear,100,2012-11-21 12:15:00
6:35 AM,32.0,32.0,100,30.00,3.0,ESE,4.6,-,N/A,,Clear,110,2012-11-21 12:35:00
6:55 AM,32.0,32.0,100,30.00,2.5,ESE,3.5,-,N/A,,Clear,110,2012-11-21 12:55:00
7:15 AM,32.0,32.0,100,30.00,3.0,ESE,5.8,-,N/A,,Clear,110,2012-11-21 13:15:00
7:35 AM,32.0,32.0,100,30.00,2.5,ESE,5.8,-,N/A,,Clear,120,2012-11-21 13:35:00
7:55 AM,32.0,32.0,100,30.00,2.0,ESE,4.6,-,N/A,,Clear,110,2012-11-21 13:55:00
8:15 AM,33.8,33.8,100,30.00,2.5,East,4.6,-,N/A,,Clear,90,2012-11-21 14:15:00
8:35 AM,35.6,35.6,100,30.00,4.0,East,4.6,-,N/A,,Clear,90,2012-11-21 14:35:00
8:55 AM,37.4,37.4,100,29.99,4.0,East,5.8,-,N/A,,Clear,90,2012-11-21 14:55:00
9:15 AM,37.4,37.4,100,29.99,4.0,ESE,4.6,-,N/A,,Clear,110,2012-11-21 15:15:00
9:35 AM,41.0,41.0,100,29.98,5.0,ESE,4.6,-,N/A,,Clear,120,2012-11-21 15:35:00
9:55 AM,44.6,44.6,100,29.98,7.0,SSE,6.9,-,N/A,,Clear,160,2012-11-21 15:55:00
10:15 AM,48.2,39.2,71,29.98,10.0,South,8.1,-,N/A,,Clear,170,2012-11-21 16:15:00
10:35 AM,50.0,37.4,62,29.98,10.0,South,10.4,-,N/A,,Clear,180,2012-11-21 16:35:00
11:15 AM,51.8,37.4,58,29.97,10.0,SSW,6.9,-,N/A,,Clear,200,2012-11-21 17:15:00
11:35 AM,53.6,37.4,54,29.95,10.0,SSW,8.1,-,N/A,,Clear,200,2012-11-21 17:35:00
12:15 PM,57.2,37.4,48,29.93,10.0,South,11.5,-,N/A,,Clear,190,2012-11-21 18:15:00
12:35 PM,57.2,37.4,48,29.92,10.0,South,11.5,-,N/A,,Clear,180,2012-11-21 18:35:00
12:55 PM,59.0,37.4,45,29.91,10.0,South,12.7,-,N/A,,Clear,190,2012-11-21 18:55:00
1:15 PM,59.0,37.4,45,29.91,10.0,South,11.5,17.3,N/A,,Clear,190,2012-11-21 19:15:00
1:35 PM,60.8,37.4,42,29.91,10.0,SSW,12.7,-,N/A,,Clear,200,2012-11-21 19:35:00
1:55 PM,60.8,37.4,42,29.91,10.0,SSW,13.8,-,N/A,,Clear,200,2012-11-21 19:55:00
2:15 PM,60.8,37.4,42,29.90,10.0,South,9.2,-,N/A,,Clear,170,2012-11-21 20:15:00
2:35 PM,60.8,37.4,42,29.90,10.0,South,11.5,-,N/A,,Clear,180,2012-11-21 20:35:00
2:55 PM,60.8,37.4,42,29.89,10.0,South,9.2,-,N/A,,Clear,170,2012-11-21 20:55:00
3:15 PM,60.8,37.4,42,29.89,10.0,South,9.2,-,N/A,,Clear,190,2012-11-21 21:15:00
3:55 PM,59.0,37.4,45,29.88,10.0,SSE,3.5,-,N/A,,Clear,160,2012-11-21 21:55:00
4:15 PM,57.2,37.4,48,29.87,10.0,ESE,4.6,-,N/A,,Clear,120,2012-11-21 22:15:00
4:35 PM,55.4,37.4,51,29.86,10.0,East,4.6,-,N/A,,Clear,100,2012-11-21 22:35:00
4:55 PM,53.6,37.4,54,29.86,10.0,ESE,4.6,-,N/A,,Clear,120,2012-11-21 22:55:00
5:15 PM,53.6,37.4,54,29.86,10.0,East,6.9,-,N/A,,Clear,100,2012-11-21 23:15:00
5:35 PM,51.8,37.4,58,29.85,10.0,East,6.9,-,N/A,,Clear,100,2012-11-21 23:35:00
5:55 PM,51.8,37.4,58,29.85,10.0,East,5.8,-,N/A,,Clear,100,2012-11-21 23:55:00
6:15 PM,50.0,37.4,62,29.85,10.0,East,5.8,-,N/A,,Clear,100,2012-11-22 00:15:00
6:35 PM,48.2,37.4,66,29.84,10.0,East,6.9,-,N/A,,Clear,100,2012-11-22 00:35:00
6:55 PM,48.2,37.4,66,29.83,10.0,East,6.9,-,N/A,,Clear,100,2012-11-22 00:55:00
7:15 PM,46.4,37.4,71,29.83,10.0,ESE,4.6,-,N/A,,Clear,120,2012-11-22 01:15:00
7:35 PM,55.4,42.8,63,29.83,10.0,SSE,10.4,-,N/A,,Clear,150,2012-11-22 01:35:00
7:55 PM,57.2,42.8,59,29.82,10.0,South,12.7,17.3,N/A,,Clear,170,2012-11-22 01:55:00
8:15 PM,57.2,42.8,59,29.83,10.0,South,12.7,-,N/A,,Clear,170,2012-11-22 02:15:00
8:35 PM,55.4,42.8,63,29.83,10.0,South,10.4,-,N/A,,Clear,170,2012-11-22 02:35:00
8:55 PM,57.2,42.8,59,29.83,10.0,South,11.5,-,N/A,,Clear,170,2012-11-22 02:55:00
9:15 PM,55.4,42.8,63,29.83,10.0,South,10.4,-,N/A,,Clear,170,2012-11-22 03:15:00
9:35 PM,55.4,42.8,63,29.83,10.0,SSE,9.2,-,N/A,,Clear,160,2012-11-22 03:35:00
9:55 PM,55.4,41.0,58,29.82,10.0,SSE,8.1,-,N/A,,Clear,160,2012-11-22 03:55:00
10:15 PM,55.4,41.0,58,29.81,10.0,SSE,9.2,-,N/A,,Clear,160,2012-11-22 04:15:00
10:35 PM,53.6,41.0,62,29.80,10.0,SSE,8.1,-,N/A,,Clear,150,2012-11-22 04:35:00
10:55 PM,55.4,39.2,54,29.79,10.0,SSE,9.2,-,N/A,,Clear,160,2012-11-22 04:55:00
11:15 PM,55.4,37.4,51,29.79,10.0,SSE,9.2,-,N/A,,Clear,160,2012-11-22 05:15:00
11:35 PM,55.4,37.4,51,29.78,10.0,South,11.5,-,N/A,,Clear,180,2012-11-22 05:35:00
11:55 PM,55.4,37.4,51,29.78,10.0,South,10.4,17.3,N/A,,Clear,170,2012-11-22 05:55:00